STARLETTE 1 07646U 75010A 10076.23675533 -.00000084 00000-0 44015-4 0 2178 2 07646 49.8267 133.2616 0205574 254.6659 103.1417 13.82273277773458 LAGEOS 1 1 08820U 76039A 10075.85927518 .00000023 00000-0 10000-3 0 9271 2 08820 109.8579 305.8323 0044497 133.9413 226.5121 6.38664815534452 AJISAI (EGS) 1 16908U 86061A 10076.17888752 -.00000083 00000-0 10000-3 0 1634 2 16908 50.0108 39.6373 0011556 191.7369 168.3196 12.44463937741598 LAGEOS 2 1 22195U 92070B 10076.23873283 -.00000009 00000-0 10000-3 0 1353 2 22195 52.6558 58.2788 0138831 112.3202 249.2138 6.47294196411345 STELLA 1 22824U 93061B 10076.22519215 .00000056 00000-0 40330-4 0 5180 2 22824 98.5143 21.8138 0005792 210.9201 149.1646 14.27287412858135 WESTPAC 1 25398U 98043E 10076.14203896 .00000005 00000-0 20500-4 0 7633 2 25398 98.3205 87.3672 0002228 121.7607 238.3800 14.22680421606823 GRACE-1 1 27391U 02012A 10076.72974321 .00001464 00000-0 42484-4 0 4420 2 27391 89.0196 326.5404 0018500 116.0696 244.2490 15.34571723447259 GRACE-2 1 27392U 02012B 10075.75123229 .00001189 00000-0 34292-4 0 4417 2 27392 89.0194 326.6876 0019362 122.5174 237.7968 15.34566442447105 GOCE 1 34602U 09013A 10076.74236662 -.00000971 19266-5 -50084-6 0 9539 2 34602 96.6424 90.5465 0006150 296.4956 63.5640 16.05983225 58514